Time,TemperatureF,DewpointF,PressureIn,WindDirection,WindDirectionDegrees,WindSpeedMPH,WindSpeedGustMPH,Humidity,HourlyPrecipIn,Conditions,Clouds,dailyrainin,SoftwareType,DateUTC
2013-11-02 00:01:00,62.1,56.8,17.72,SSE,157,0.0,0.0,83,0.00,,---,0.00,VWS V14.01,2013-11-02 04:01:00,
2013-11-02 00:02:00,62.1,56.8,17.72,SSE,157,0.0,0.0,83,0.00,,---,0.00,VWS V14.01,2013-11-02 04:02:00,
2013-11-02 00:07:00,62.1,56.8,17.72,SSE,157,0.0,0.0,83,0.00,,---,0.00,VWS V14.01,2013-11-02 04:07:00,
2013-11-02 00:12:00,62.1,56.8,17.72,SSE,157,0.0,0.0,83,0.00,,---,0.00,VWS V14.01,2013-11-02 04:12:00,
2013-11-02 00:17:00,62.1,56.8,17.72,SSE,157,0.0,0.0,83,0.00,,---,0.00,VWS V14.01,2013-11-02 04:17:00,
2013-11-02 00:22:00,62.1,56.8,17.72,SSE,157,0.0,0.0,83,0.00,,---,0.00,VWS V14.01,2013-11-02 04:22:00,
2013-11-02 00:27:00,62.2,57.0,17.72,SSE,157,0.0,0.0,83,0.00,,---,0.00,VWS V14.01,2013-11-02 04:27:00,
2013-11-02 00:32:00,62.2,57.3,17.72,SSE,157,0.0,0.0,84,0.00,,---,0.00,VWS V14.01,2013-11-02 04:32:00,
2013-11-02 00:37:00,62.1,56.8,17.72,SSE,157,0.0,0.0,83,0.00,,---,0.00,VWS V14.01,2013-11-02 04:37:00,
2013-11-02 00:42:00,61.9,56.7,17.72,SSE,157,0.0,0.0,83,0.00,,---,0.00,VWS V14.01,2013-11-02 04:42:00,
2013-11-02 00:47:00,61.9,56.7,17.72,SSE,157,0.0,0.0,83,0.00,,---,0.00,VWS V14.01,2013-11-02 04:47:00,
2013-11-02 00:52:00,61.7,56.5,17.72,SSE,157,0.0,0.0,83,0.00,,---,0.00,VWS V14.01,2013-11-02 04:52:00,
2013-11-02 00:57:00,61.7,56.5,17.72,SSE,157,0.0,0.0,83,0.00,,---,0.00,VWS V14.01,2013-11-02 04:57:00,
2013-11-02 01:02:00,61.7,56.5,17.72,SSE,157,0.0,0.0,83,0.00,,---,0.00,VWS V14.01,2013-11-02 05:02:00,
2013-11-02 01:07:00,61.7,56.5,17.72,SSE,157,0.0,0.0,83,0.00,,---,0.00,VWS V14.01,2013-11-02 05:07:00,
2013-11-02 01:12:00,61.7,56.5,17.72,SSE,157,0.0,0.0,83,0.00,,---,0.00,VWS V14.01,2013-11-02 05:12:00,
2013-11-02 01:17:00,61.7,56.5,17.72,SSE,157,0.0,0.0,83,0.00,,---,0.00,VWS V14.01,2013-11-02 05:17:00,
2013-11-02 01:22:00,61.5,56.3,17.72,SSE,157,0.0,0.0,83,0.00,,---,0.00,VWS V14.01,2013-11-02 05:22:00,
2013-11-02 01:27:00,61.5,56.3,17.72,SSE,157,0.0,0.0,83,0.00,,---,0.00,VWS V14.01,2013-11-02 05:27:00,
2013-11-02 01:32:00,61.7,56.8,17.72,SSE,157,0.0,0.0,84,0.00,,---,0.00,VWS V14.01,2013-11-02 05:32:00,
2013-11-02 01:37:00,61.7,56.8,17.72,SSE,157,0.0,0.0,84,0.00,,---,0.00,VWS V14.01,2013-11-02 05:37:00,
2013-11-02 01:42:00,61.7,56.8,17.72,SSE,157,0.0,0.0,84,0.00,,---,0.00,VWS V14.01,2013-11-02 05:42:00,
2013-11-02 01:47:00,61.9,57.0,17.72,SSE,157,0.0,0.0,84,0.00,,---,0.00,VWS V14.01,2013-11-02 05:47:00,
2013-11-02 01:52:00,61.9,57.0,17.72,SSE,157,0.0,0.0,84,0.00,,---,0.00,VWS V14.01,2013-11-02 05:52:00,
2013-11-02 01:57:00,61.9,57.0,17.72,SSE,157,0.0,0.0,84,0.00,,---,0.00,VWS V14.01,2013-11-02 05:57:00,
2013-11-02 02:02:00,61.7,56.8,17.72,SSE,157,0.0,0.0,84,0.00,,---,0.00,VWS V14.01,2013-11-02 06:02:00,
2013-11-02 02:07:00,61.7,56.8,17.72,SSE,157,0.0,0.0,84,0.00,,---,0.00,VWS V14.01,2013-11-02 06:07:00,
2013-11-02 02:12:00,61.7,56.8,17.72,SSE,157,0.0,0.0,84,0.00,,---,0.00,VWS V14.01,2013-11-02 06:12:00,
2013-11-02 02:17:00,61.7,57.2,17.72,SSE,157,0.0,0.0,85,0.00,,---,0.00,VWS V14.01,2013-11-02 06:17:00,
2013-11-02 02:22:00,61.7,57.2,17.72,SSE,157,0.0,0.0,85,0.00,,---,0.00,VWS V14.01,2013-11-02 06:22:00,
2013-11-02 02:27:00,61.7,57.2,17.72,SSE,157,0.0,0.0,85,0.00,,---,0.00,VWS V14.01,2013-11-02 06:27:00,
2013-11-02 02:32:00,61.7,57.2,17.72,SSE,157,0.0,0.0,85,0.00,,---,0.00,VWS V14.01,2013-11-02 06:32:00,
2013-11-02 02:37:00,61.5,57.0,17.72,SSE,157,0.0,0.0,85,0.00,,---,0.00,VWS V14.01,2013-11-02 06:37:00,
2013-11-02 02:42:00,61.5,57.0,17.72,SSE,157,0.0,0.0,85,0.00,,---,0.00,VWS V14.01,2013-11-02 06:42:00,
2013-11-02 02:47:00,61.5,57.0,17.72,SSE,157,0.0,0.0,85,0.00,,---,0.00,VWS V14.01,2013-11-02 06:47:00,
2013-11-02 02:52:00,61.5,57.0,17.72,SSE,157,0.0,0.0,85,0.00,,---,0.00,VWS V14.01,2013-11-02 06:52:00,
2013-11-02 02:57:00,61.3,56.8,17.72,SSE,157,0.0,0.0,85,0.00,,---,0.00,VWS V14.01,2013-11-02 06:57:00,
2013-11-02 03:02:00,61.2,56.3,17.72,SSE,157,0.0,0.0,84,0.00,,---,0.00,VWS V14.01,2013-11-02 07:02:00,
2013-11-02 03:07:00,61.2,56.3,17.72,SSE,157,0.0,0.0,84,0.00,,---,0.00,VWS V14.01,2013-11-02 07:07:00,
2013-11-02 03:12:00,61.2,56.6,17.72,SSE,157,0.0,0.0,85,0.00,,---,0.00,VWS V14.01,2013-11-02 07:12:00,
2013-11-02 03:17:00,61.2,56.6,17.72,SSE,157,0.0,0.0,85,0.00,,---,0.00,VWS V14.01,2013-11-02 07:17:00,
2013-11-02 03:22:00,61.2,56.6,17.72,SSE,157,0.0,0.0,85,0.00,,---,0.00,VWS V14.01,2013-11-02 07:22:00,
2013-11-02 03:27:00,61.2,56.6,17.72,SSE,157,0.0,0.0,85,0.00,,---,0.00,VWS V14.01,2013-11-02 07:27:00,
2013-11-02 03:33:00,61.2,56.6,17.72,SSE,157,0.0,0.0,85,0.00,,---,0.00,VWS V14.01,2013-11-02 07:33:00,
2013-11-02 03:38:00,61.2,56.6,17.72,SSE,157,0.0,0.0,85,0.00,,---,0.00,VWS V14.01,2013-11-02 07:38:00,
2013-11-02 03:43:00,61.0,56.5,17.72,SSE,157,0.0,0.0,85,0.00,,---,0.00,VWS V14.01,2013-11-02 07:43:00,
2013-11-02 03:48:00,61.0,56.5,17.72,SSE,157,0.0,0.0,85,0.00,,---,0.00,VWS V14.01,2013-11-02 07:48:00,
2013-11-02 03:53:00,61.0,56.5,17.72,SSE,157,0.0,0.0,85,0.00,,---,0.00,VWS V14.01,2013-11-02 07:53:00,
2013-11-02 03:58:00,61.2,56.6,17.72,SSE,157,0.0,0.0,85,0.00,,---,0.00,VWS V14.01,2013-11-02 07:58:00,
2013-11-02 04:03:00,61.2,56.6,17.72,SSE,157,0.0,0.0,85,0.00,,---,0.00,VWS V14.01,2013-11-02 08:03:00,
2013-11-02 04:08:00,61.3,56.8,17.72,SSE,157,0.0,0.0,85,0.00,,---,0.00,VWS V14.01,2013-11-02 08:08:00,
2013-11-02 04:13:00,61.3,57.1,17.72,SSE,157,0.0,0.0,86,0.00,,---,0.00,VWS V14.01,2013-11-02 08:13:00,
2013-11-02 04:18:00,61.5,57.3,17.72,SSE,157,0.0,0.0,86,0.00,,---,0.00,VWS V14.01,2013-11-02 08:18:00,
2013-11-02 04:23:00,61.9,58.0,17.72,WNW,299,0.0,3.6,87,0.00,,---,0.00,VWS V14.01,2013-11-02 08:23:00,
2013-11-02 04:28:00,62.4,58.8,17.72,WNW,299,0.0,0.0,88,0.00,,---,0.00,VWS V14.01,2013-11-02 08:28:00,
2013-11-02 04:33:00,62.4,58.8,17.72,WNW,299,0.0,0.0,88,0.00,,---,0.00,VWS V14.01,2013-11-02 08:33:00,
2013-11-02 04:38:00,62.4,58.8,17.72,NE,45,0.0,0.0,88,0.00,,---,0.00,VWS V14.01,2013-11-02 08:38:00,
2013-11-02 04:43:00,62.6,59.0,17.72,NE,44,0.0,0.0,88,0.00,,---,0.00,VWS V14.01,2013-11-02 08:43:00,
2013-11-02 04:48:00,62.4,59.1,17.72,NE,45,0.0,0.0,89,0.00,,---,0.00,VWS V14.01,2013-11-02 08:48:00,
2013-11-02 04:53:00,62.2,59.0,17.72,NE,45,0.0,0.0,89,0.00,,---,0.00,VWS V14.01,2013-11-02 08:53:00,
2013-11-02 04:58:00,62.2,59.0,17.72,NE,44,0.0,0.0,89,0.00,,---,0.00,VWS V14.01,2013-11-02 08:58:00,
2013-11-02 05:03:00,61.9,58.6,17.72,NE,45,0.0,0.0,89,0.00,,---,0.00,VWS V14.01,2013-11-02 09:03:00,
2013-11-02 05:08:00,61.7,58.4,17.72,NNW,343,0.0,0.0,89,0.00,,---,0.00,VWS V14.01,2013-11-02 09:08:00,
2013-11-02 05:13:00,61.3,58.1,17.72,North,353,0.0,0.0,89,0.00,,---,0.00,VWS V14.01,2013-11-02 09:13:00,
2013-11-02 05:18:00,61.2,57.9,17.72,North,353,0.0,0.0,89,0.00,,---,0.00,VWS V14.01,2013-11-02 09:18:00,
2013-11-02 05:23:00,61.0,57.7,17.72,North,353,0.0,0.0,89,0.00,,---,0.00,VWS V14.01,2013-11-02 09:23:00,
2013-11-02 05:28:00,60.8,57.5,17.72,West,281,0.0,0.0,89,0.00,,---,0.00,VWS V14.01,2013-11-02 09:28:00,
2013-11-02 05:33:00,60.6,57.4,17.72,WNW,291,0.0,0.0,89,0.00,,---,0.00,VWS V14.01,2013-11-02 09:33:00,
2013-11-02 05:38:00,60.4,57.2,17.72,WNW,291,0.0,0.0,89,0.00,,---,0.00,VWS V14.01,2013-11-02 09:38:00,
2013-11-02 05:43:00,60.3,56.7,17.72,NW,314,0.0,0.0,88,0.00,,---,0.00,VWS V14.01,2013-11-02 09:43:00,
2013-11-02 05:48:00,60.1,56.5,17.72,NW,314,0.0,0.0,88,0.00,,---,0.00,VWS V14.01,2013-11-02 09:48:00,
2013-11-02 05:53:00,59.9,56.0,17.72,NW,314,0.0,0.0,87,0.00,,---,0.00,VWS V14.01,2013-11-02 09:53:00,
2013-11-02 05:58:00,59.7,55.5,17.72,NW,314,0.0,0.0,86,0.00,,---,0.00,VWS V14.01,2013-11-02 09:58:00,
2013-11-02 06:03:00,59.5,55.0,17.72,NW,314,0.0,0.0,85,0.00,,---,0.00,VWS V14.01,2013-11-02 10:03:00,
2013-11-02 06:08:00,59.4,54.5,17.72,NW,314,0.0,0.0,84,0.00,,---,0.00,VWS V14.01,2013-11-02 10:08:00,
2013-11-02 06:13:00,59.4,54.5,17.72,NW,314,0.0,0.0,84,0.00,,---,0.00,VWS V14.01,2013-11-02 10:13:00,
2013-11-02 06:18:00,59.2,54.4,17.72,NW,314,0.0,0.0,84,0.00,,---,0.00,VWS V14.01,2013-11-02 10:18:00,
2013-11-02 06:23:00,59.2,54.4,17.72,NW,314,0.0,0.0,84,0.00,,---,0.00,VWS V14.01,2013-11-02 10:23:00,
2013-11-02 06:28:00,59.4,54.5,17.72,NW,314,0.0,0.0,84,0.00,,---,0.00,VWS V14.01,2013-11-02 10:28:00,
2013-11-02 06:33:00,59.4,54.5,17.72,NW,314,0.0,0.0,84,0.00,,---,0.00,VWS V14.01,2013-11-02 10:33:00,
2013-11-02 06:38:00,59.4,54.5,17.72,NW,314,0.0,0.0,84,0.00,,---,0.00,VWS V14.01,2013-11-02 10:38:00,
2013-11-02 06:43:00,59.5,54.7,17.72,NW,314,0.0,0.0,84,0.00,,---,0.00,VWS V14.01,2013-11-02 10:43:00,
2013-11-02 06:48:00,59.5,54.7,17.72,NW,314,0.0,0.0,84,0.00,,---,0.00,VWS V14.01,2013-11-02 10:48:00,
2013-11-02 06:53:00,59.4,54.5,17.72,NW,314,0.0,0.0,84,0.00,,---,0.00,VWS V14.01,2013-11-02 10:53:00,
2013-11-02 06:58:00,59.4,54.5,17.72,NW,314,0.0,0.0,84,0.00,,---,0.00,VWS V14.01,2013-11-02 10:58:00,
2013-11-02 07:03:00,59.4,54.5,17.72,NW,314,0.0,0.0,84,0.00,,---,0.00,VWS V14.01,2013-11-02 11:03:00,
2013-11-02 07:08:00,59.4,54.5,17.72,NW,314,0.0,0.0,84,0.00,,---,0.00,VWS V14.01,2013-11-02 11:08:00,
2013-11-02 07:13:00,59.4,54.5,17.72,NW,314,0.0,0.0,84,0.00,,---,0.00,VWS V14.01,2013-11-02 11:13:00,
2013-11-02 07:18:00,59.2,54.4,17.72,NW,314,0.0,0.0,84,0.00,,---,0.00,VWS V14.01,2013-11-02 11:18:00,
2013-11-02 07:23:00,59.2,54.4,17.72,NW,314,0.0,0.0,84,0.00,,---,0.00,VWS V14.01,2013-11-02 11:23:00,
2013-11-02 07:28:00,59.2,54.4,17.72,NW,314,0.0,0.0,84,0.00,,---,0.00,VWS V14.01,2013-11-02 11:28:00,
2013-11-02 07:33:00,59.2,54.4,17.72,NW,314,0.0,0.0,84,0.00,,---,0.00,VWS V14.01,2013-11-02 11:33:00,
2013-11-02 07:38:00,59.2,54.4,17.72,NW,314,0.0,0.0,84,0.00,,---,0.00,VWS V14.01,2013-11-02 11:38:00,
2013-11-02 07:43:00,59.2,54.4,17.72,NW,314,0.0,0.0,84,0.00,,---,0.00,VWS V14.01,2013-11-02 11:43:00,
2013-11-02 07:48:00,59.0,54.2,17.72,NW,314,0.0,0.0,84,0.00,,---,0.00,VWS V14.01,2013-11-02 11:48:00,
2013-11-02 07:53:00,59.0,54.2,17.72,NW,314,0.0,0.0,84,0.00,,---,0.00,VWS V14.01,2013-11-02 11:53:00,
2013-11-02 07:58:00,59.0,54.2,17.72,NW,314,0.0,0.0,84,0.00,,---,0.00,VWS V14.01,2013-11-02 11:58:00,
2013-11-02 08:03:00,59.0,54.2,17.72,NW,314,0.0,0.0,84,0.00,,---,0.00,VWS V14.01,2013-11-02 12:03:00,
2013-11-02 08:08:00,59.2,54.4,17.72,NW,314,0.0,0.0,84,0.00,,---,0.00,VWS V14.01,2013-11-02 12:08:00,
2013-11-02 08:13:00,59.0,54.2,17.72,NW,314,0.0,0.0,84,0.00,,---,0.00,VWS V14.01,2013-11-02 12:13:00,
2013-11-02 08:18:00,59.0,54.2,17.72,NW,314,0.0,0.0,84,0.00,,---,0.00,VWS V14.01,2013-11-02 12:18:00,
2013-11-02 08:23:00,58.8,54.0,17.72,NW,314,0.0,0.0,84,0.00,,---,0.00,VWS V14.01,2013-11-02 12:23:00,
2013-11-02 08:28:00,58.8,54.0,17.72,NW,314,0.0,0.0,84,0.00,,---,0.00,VWS V14.01,2013-11-02 12:28:00,
2013-11-02 08:33:00,58.8,54.0,17.72,NW,314,0.0,0.0,84,0.00,,---,0.00,VWS V14.01,2013-11-02 12:33:00,
2013-11-02 08:38:00,58.6,53.5,17.72,NW,314,0.0,0.0,83,0.00,,---,0.00,VWS V14.01,2013-11-02 12:38:00,
2013-11-02 08:43:00,58.5,53.3,17.72,NW,314,0.0,0.0,83,0.00,,---,0.00,VWS V14.01,2013-11-02 12:43:00,
2013-11-02 08:48:00,58.5,53.3,17.72,NW,314,0.0,0.0,83,0.00,,---,0.00,VWS V14.01,2013-11-02 12:48:00,
2013-11-02 08:53:00,58.6,53.5,17.72,NW,314,0.0,0.0,83,0.00,,---,0.00,VWS V14.01,2013-11-02 12:53:00,
2013-11-02 08:58:00,58.6,53.5,17.72,NW,314,0.0,0.0,83,0.00,,---,0.00,VWS V14.01,2013-11-02 12:58:00,
2013-11-02 09:03:00,58.6,53.5,17.72,NW,314,0.0,0.0,83,0.00,,---,0.00,VWS V14.01,2013-11-02 13:03:00,
2013-11-02 09:08:00,58.8,53.7,17.72,NW,314,0.0,0.0,83,0.00,,---,0.00,VWS V14.01,2013-11-02 13:08:00,
2013-11-02 09:13:00,59.2,53.7,17.72,NW,314,0.0,0.0,82,0.00,,---,0.00,VWS V14.01,2013-11-02 13:13:00,
2013-11-02 09:18:00,59.5,54.0,17.72,NW,314,0.0,0.0,82,0.00,,---,0.00,VWS V14.01,2013-11-02 13:18:00,
2013-11-02 09:23:00,59.7,54.2,17.72,NW,314,0.0,0.0,82,0.00,,---,0.00,VWS V14.01,2013-11-02 13:23:00,
2013-11-02 09:28:00,60.1,54.2,17.72,NW,314,0.0,0.0,81,0.00,,---,0.00,VWS V14.01,2013-11-02 13:28:00,
2013-11-02 09:33:00,60.6,54.4,17.72,NNW,329,0.0,0.0,80,0.00,,---,0.00,VWS V14.01,2013-11-02 13:33:00,
2013-11-02 09:38:00,60.8,52.5,17.72,NNE,15,0.0,0.0,74,0.00,,---,0.00,VWS V14.01,2013-11-02 13:38:00,
2013-11-02 09:43:00,61.0,43.8,17.72,ESE,104,0.0,0.0,53,0.00,,---,0.00,VWS V14.01,2013-11-02 13:43:00,
2013-11-02 09:48:00,61.2,39.1,17.72,NNW,342,0.0,0.0,44,0.00,,---,0.00,VWS V14.01,2013-11-02 13:48:00,
2013-11-02 09:53:00,61.3,36.8,17.72,NW,322,0.0,0.0,40,0.00,,---,0.00,VWS V14.01,2013-11-02 13:53:00,
2013-11-02 09:58:00,61.7,36.5,17.72,NW,322,0.0,0.0,39,0.00,,---,0.00,VWS V14.01,2013-11-02 13:58:00,
2013-11-02 10:03:00,62.4,30.6,17.72,NW,305,0.0,0.0,30,0.00,,---,0.00,VWS V14.01,2013-11-02 14:03:00,
2013-11-02 10:08:00,62.8,26.5,17.72,NW,311,0.0,0.0,25,0.00,,---,0.00,VWS V14.01,2013-11-02 14:08:00,
2013-11-02 10:13:00,63.1,25.8,17.72,NW,311,0.0,0.0,24,0.00,,---,0.00,VWS V14.01,2013-11-02 14:13:00,
2013-11-02 10:18:00,63.5,19.3,17.72,NW,318,0.0,0.0,18,0.00,,---,0.00,VWS V14.01,2013-11-02 14:18:00,
2013-11-02 10:23:00,63.7,16.7,17.72,ENE,66,3.6,3.6,16,0.00,,---,0.00,VWS V14.01,2013-11-02 14:23:00,
2013-11-02 10:28:00,64.0,17.0,17.72,NNW,327,0.0,3.1,16,0.00,,---,0.00,VWS V14.01,2013-11-02 14:28:00,
2013-11-02 10:33:00,64.2,12.4,17.72,NW,310,2.7,3.6,13,0.00,,---,0.00,VWS V14.01,2013-11-02 14:33:00,
2013-11-02 10:38:00,64.4,15.8,17.72,NW,310,0.0,0.0,15,0.00,,---,0.00,VWS V14.01,2013-11-02 14:38:00,
2013-11-02 10:43:00,64.4,15.8,17.72,NNE,23,2.7,2.7,15,0.00,,---,0.00,VWS V14.01,2013-11-02 14:43:00,
2013-11-02 10:48:00,64.6,15.9,17.72,NNE,23,0.0,0.0,15,0.00,,---,0.00,VWS V14.01,2013-11-02 14:48:00,
2013-11-02 10:53:00,64.8,12.8,17.72,NNE,23,0.0,0.0,13,0.00,,---,0.00,VWS V14.01,2013-11-02 14:53:00,
2013-11-02 10:58:00,64.8,12.8,17.72,NNE,23,0.0,0.0,13,0.00,,---,0.00,VWS V14.01,2013-11-02 14:58:00,
2013-11-02 11:03:00,64.8,12.8,17.72,NNE,23,2.7,4.0,13,0.00,,---,0.00,VWS V14.01,2013-11-02 15:03:00,
2013-11-02 11:08:00,64.4,12.5,17.72,NNE,23,0.0,0.0,13,0.00,,---,0.00,VWS V14.01,2013-11-02 15:08:00,
2013-11-02 11:13:00,64.8,12.8,17.72,NNE,23,0.0,0.0,13,0.00,,---,0.00,VWS V14.01,2013-11-02 15:13:00,
2013-11-02 11:18:00,65.1,13.1,17.72,NNE,23,0.0,0.0,13,0.00,,---,0.00,VWS V14.01,2013-11-02 15:18:00,
2013-11-02 11:23:00,65.1,13.1,17.72,NNE,23,0.0,0.0,13,0.00,,---,0.00,VWS V14.01,2013-11-02 15:23:00,
2013-11-02 11:29:00,65.7,7.6,17.72,NNE,23,0.0,0.0,10,0.00,,---,0.00,VWS V14.01,2013-11-02 15:29:00,
2013-11-02 11:33:00,66.0,7.9,17.72,NW,317,3.1,4.0,10,0.00,,---,0.00,VWS V14.01,2013-11-02 15:33:00,
2013-11-02 11:39:00,65.8,7.8,17.72,NW,317,2.2,2.7,10,0.00,,---,0.00,VWS V14.01,2013-11-02 15:39:00,
2013-11-02 11:44:00,66.0,7.9,17.72,South,170,2.7,4.0,10,0.00,,---,0.00,VWS V14.01,2013-11-02 15:44:00,
2013-11-02 11:49:00,66.0,7.9,17.72,South,170,0.0,0.0,10,0.00,,---,0.00,VWS V14.01,2013-11-02 15:49:00,
2013-11-02 11:54:00,66.0,7.9,17.72,West,273,0.0,0.0,10,0.00,,---,0.00,VWS V14.01,2013-11-02 15:54:00,
2013-11-02 11:59:00,66.2,8.1,17.72,West,273,2.7,3.1,10,0.00,,---,0.00,VWS V14.01,2013-11-02 15:59:00,
2013-11-02 12:04:00,66.4,8.2,17.72,NNE,16,0.0,0.0,10,0.00,,---,0.00,VWS V14.01,2013-11-02 16:04:00,
2013-11-02 12:09:00,66.7,8.5,17.72,NNE,16,0.0,0.0,10,0.00,,---,0.00,VWS V14.01,2013-11-02 16:09:00,
2013-11-02 12:14:00,66.7,8.5,17.72,NNE,16,0.0,0.0,10,0.00,,---,0.00,VWS V14.01,2013-11-02 16:14:00,
2013-11-02 12:19:00,66.7,8.5,17.72,NNE,16,0.0,0.0,10,0.00,,---,0.00,VWS V14.01,2013-11-02 16:19:00,
2013-11-02 12:24:00,66.7,8.5,17.72,NNE,16,0.0,0.0,10,0.00,,---,0.00,VWS V14.01,2013-11-02 16:24:00,
2013-11-02 12:29:00,67.3,8.9,17.72,WNW,301,2.7,3.1,10,0.00,,---,0.00,VWS V14.01,2013-11-02 16:29:00,
2013-11-02 12:34:00,67.8,9.3,17.72,WNW,301,0.0,0.0,10,0.00,,---,0.00,VWS V14.01,2013-11-02 16:34:00,
2013-11-02 12:39:00,68.2,9.6,17.72,WNW,301,0.0,0.0,10,0.00,,---,0.00,VWS V14.01,2013-11-02 16:39:00,
2013-11-02 12:44:00,68.4,9.7,17.72,WNW,301,0.0,0.0,10,0.00,,---,0.00,VWS V14.01,2013-11-02 16:44:00,
2013-11-02 12:49:00,68.9,10.1,17.72,WNW,301,0.0,0.0,10,0.00,,---,0.00,VWS V14.01,2013-11-02 16:49:00,
2013-11-02 12:54:00,69.4,10.5,17.72,NW,320,2.7,3.6,10,0.00,,---,0.00,VWS V14.01,2013-11-02 16:54:00,
2013-11-02 12:59:00,69.8,8.5,17.72,NW,321,0.0,0.0,9,0.00,,---,0.00,VWS V14.01,2013-11-02 16:59:00,
2013-11-02 13:04:00,69.4,10.5,17.72,NE,35,0.0,0.0,10,0.00,,---,0.00,VWS V14.01,2013-11-02 17:04:00,
2013-11-02 13:09:00,69.8,8.5,17.72,WNW,302,2.2,3.6,9,0.00,,---,0.00,VWS V14.01,2013-11-02 17:09:00,
2013-11-02 13:14:00,69.6,10.7,17.72,SSW,205,2.2,3.6,10,0.00,,---,0.00,VWS V14.01,2013-11-02 17:14:00,
2013-11-02 13:19:00,70.2,8.7,17.72,NNW,346,0.0,0.0,9,0.00,,---,0.00,VWS V14.01,2013-11-02 17:19:00,
2013-11-02 13:24:00,70.7,9.1,17.72,NNW,346,0.0,0.0,9,0.00,,---,0.00,VWS V14.01,2013-11-02 17:24:00,
2013-11-02 13:29:00,69.6,10.7,17.72,NNW,340,3.1,5.8,10,0.00,,---,0.00,VWS V14.01,2013-11-02 17:29:00,
2013-11-02 13:34:00,68.9,10.1,17.72,North,349,3.1,3.1,10,0.00,,---,0.00,VWS V14.01,2013-11-02 17:34:00,
2013-11-02 13:39:00,69.1,10.3,17.72,North,353,4.0,4.0,10,0.00,,---,0.00,VWS V14.01,2013-11-02 17:39:00,
2013-11-02 13:44:00,69.3,10.4,17.72,NNE,20,0.0,3.6,10,0.00,,---,0.00,VWS V14.01,2013-11-02 17:44:00,
2013-11-02 13:49:00,69.3,10.4,17.72,NNE,20,0.0,0.0,10,0.00,,---,0.00,VWS V14.01,2013-11-02 17:49:00,
2013-11-02 13:54:00,68.7,10.0,17.72,WSW,244,3.1,3.6,10,0.00,,---,0.00,VWS V14.01,2013-11-02 17:54:00,
2013-11-02 13:59:00,68.5,9.8,17.72,West,268,4.0,4.0,10,0.00,,---,0.00,VWS V14.01,2013-11-02 17:59:00,
2013-11-02 14:04:00,69.3,10.4,17.72,North,357,2.7,2.7,10,0.00,,---,0.00,VWS V14.01,2013-11-02 18:04:00,
2013-11-02 14:09:00,69.8,8.5,17.72,West,271,3.6,3.6,9,0.00,,---,0.00,VWS V14.01,2013-11-02 18:09:00,
2013-11-02 14:14:00,69.6,10.7,17.72,North,357,4.9,6.3,10,0.00,,---,0.00,VWS V14.01,2013-11-02 18:14:00,
2013-11-02 14:19:00,70.2,8.7,17.72,North,2,2.2,2.2,9,0.00,,---,0.00,VWS V14.01,2013-11-02 18:19:00,
2013-11-02 14:24:00,69.8,8.5,17.72,NW,309,2.7,4.9,9,0.00,,---,0.00,VWS V14.01,2013-11-02 18:24:00,
2013-11-02 14:29:00,69.4,10.5,17.72,WSW,245,2.2,2.7,10,0.00,,---,0.00,VWS V14.01,2013-11-02 18:29:00,
2013-11-02 14:34:00,69.3,10.4,17.72,SW,220,0.0,0.0,10,0.00,,---,0.00,VWS V14.01,2013-11-02 18:34:00,
2013-11-02 14:39:00,69.1,10.3,17.72,NE,39,0.0,3.1,10,0.00,,---,0.00,VWS V14.01,2013-11-02 18:39:00,
2013-11-02 14:44:00,69.1,10.3,17.72,ENE,65,3.1,3.1,10,0.00,,---,0.00,VWS V14.01,2013-11-02 18:44:00,
2013-11-02 14:49:00,69.4,10.5,17.72,SW,219,3.1,3.6,10,0.00,,---,0.00,VWS V14.01,2013-11-02 18:49:00,
2013-11-02 14:54:00,69.4,10.5,17.72,WNW,288,0.0,0.0,10,0.00,,---,0.00,VWS V14.01,2013-11-02 18:54:00,
2013-11-02 14:59:00,68.9,10.1,17.72,North,353,2.7,2.7,10,0.00,,---,0.00,VWS V14.01,2013-11-02 18:59:00,
2013-11-02 15:04:00,68.7,10.0,17.72,SW,228,2.7,2.7,10,0.00,,---,0.00,VWS V14.01,2013-11-02 19:04:00,
2013-11-02 15:09:00,68.5,9.8,17.72,NNW,340,6.3,6.3,10,0.00,,---,0.00,VWS V14.01,2013-11-02 19:09:00,
2013-11-02 15:14:00,68.5,9.8,17.72,NNW,331,3.6,7.2,10,0.00,,---,0.00,VWS V14.01,2013-11-02 19:14:00,
2013-11-02 15:19:00,68.7,10.0,17.72,SSE,168,2.2,3.1,10,0.00,,---,0.00,VWS V14.01,2013-11-02 19:19:00,
2013-11-02 15:24:00,68.5,9.8,17.72,NW,314,5.4,5.8,10,0.00,,---,0.00,VWS V14.01,2013-11-02 19:24:00,
2013-11-02 15:29:00,68.5,9.8,17.72,WNW,287,8.1,8.1,10,0.00,,---,0.00,VWS V14.01,2013-11-02 19:29:00,
2013-11-02 15:34:00,68.5,9.8,17.72,NW,324,0.0,2.7,10,0.00,,---,0.00,VWS V14.01,2013-11-02 19:34:00,
2013-11-02 15:39:00,68.5,9.8,17.72,North,6,2.2,2.7,10,0.00,,---,0.00,VWS V14.01,2013-11-02 19:39:00,
2013-11-02 15:44:00,68.4,9.7,17.72,WSW,237,4.0,4.0,10,0.00,,---,0.00,VWS V14.01,2013-11-02 19:44:00,
2013-11-02 15:49:00,68.2,9.6,17.72,WNW,288,3.6,3.6,10,0.00,,---,0.00,VWS V14.01,2013-11-02 19:49:00,
2013-11-02 15:54:00,67.8,9.3,17.72,West,270,2.7,3.6,10,0.00,,---,0.00,VWS V14.01,2013-11-02 19:54:00,
2013-11-02 15:59:00,67.5,9.0,17.72,NW,323,4.0,4.0,10,0.00,,---,0.00,VWS V14.01,2013-11-02 19:59:00,
2013-11-02 16:04:00,67.5,9.0,17.72,NW,308,3.1,5.4,10,0.00,,---,0.00,VWS V14.01,2013-11-02 20:04:00,
2013-11-02 16:09:00,67.3,8.9,17.72,NNW,343,0.0,4.9,10,0.00,,---,0.00,VWS V14.01,2013-11-02 20:09:00,
2013-11-02 16:14:00,67.1,8.7,17.72,West,279,2.7,4.0,10,0.00,,---,0.00,VWS V14.01,2013-11-02 20:14:00,
2013-11-02 16:19:00,66.9,8.6,17.72,WNW,298,2.7,3.6,10,0.00,,---,0.00,VWS V14.01,2013-11-02 20:19:00,
2013-11-02 16:24:00,66.9,8.6,17.72,NW,324,2.2,2.7,10,0.00,,---,0.00,VWS V14.01,2013-11-02 20:24:00,
2013-11-02 16:29:00,66.9,8.6,17.72,West,269,3.6,3.6,10,0.00,,---,0.00,VWS V14.01,2013-11-02 20:29:00,
2013-11-02 16:34:00,66.6,8.3,17.72,North,10,2.2,3.6,10,0.00,,---,0.00,VWS V14.01,2013-11-02 20:34:00,
2013-11-02 16:39:00,66.6,8.3,17.72,NNE,33,2.2,2.7,10,0.00,,---,0.00,VWS V14.01,2013-11-02 20:39:00,
2013-11-02 16:44:00,66.4,8.2,17.72,North,353,0.0,0.0,10,0.00,,---,0.00,VWS V14.01,2013-11-02 20:44:00,
2013-11-02 16:49:00,66.4,8.2,17.72,South,186,0.0,0.0,10,0.00,,---,0.00,VWS V14.01,2013-11-02 20:49:00,
2013-11-02 16:54:00,66.4,8.2,17.72,NNW,344,3.1,3.6,10,0.00,,---,0.00,VWS V14.01,2013-11-02 20:54:00,
2013-11-02 16:59:00,66.2,8.1,17.72,NW,315,3.6,6.3,10,0.00,,---,0.00,VWS V14.01,2013-11-02 20:59:00,
2013-11-02 17:04:00,65.8,7.8,17.72,NW,310,2.2,2.7,10,0.00,,---,0.00,VWS V14.01,2013-11-02 21:04:00,
2013-11-02 17:09:00,65.5,7.5,17.72,West,270,5.8,5.8,10,0.00,,---,0.00,VWS V14.01,2013-11-02 21:09:00,
2013-11-02 17:14:00,65.3,7.4,17.72,WNW,289,0.0,4.9,10,0.00,,---,0.00,VWS V14.01,2013-11-02 21:14:00,
2013-11-02 17:19:00,65.1,7.2,17.72,West,270,2.7,6.3,10,0.00,,---,0.00,VWS V14.01,2013-11-02 21:19:00,
2013-11-02 17:24:00,64.8,6.9,17.72,West,275,4.0,4.0,10,0.00,,---,0.00,VWS V14.01,2013-11-02 21:24:00,
2013-11-02 17:29:00,64.6,6.8,17.72,NW,304,2.7,5.4,10,0.00,,---,0.00,VWS V14.01,2013-11-02 21:29:00,
2013-11-02 17:34:00,64.6,6.8,17.72,WNW,297,2.2,4.0,10,0.00,,---,0.00,VWS V14.01,2013-11-02 21:34:00,
2013-11-02 17:39:00,64.4,6.7,17.72,WNW,293,4.0,4.0,10,0.00,,---,0.00,VWS V14.01,2013-11-02 21:39:00,
2013-11-02 17:44:00,64.2,8.6,17.72,WNW,290,2.2,4.0,11,0.00,,---,0.00,VWS V14.01,2013-11-02 21:44:00,
2013-11-02 17:49:00,63.9,8.4,17.72,NW,316,3.6,3.6,11,0.00,,---,0.00,VWS V14.01,2013-11-02 21:49:00,
2013-11-02 17:54:00,63.5,8.1,17.72,ENE,62,4.0,5.4,11,0.00,,---,0.00,VWS V14.01,2013-11-02 21:54:00,
2013-11-02 17:59:00,63.3,7.9,17.72,NNW,328,0.0,3.1,11,0.00,,---,0.00,VWS V14.01,2013-11-02 21:59:00,
2013-11-02 18:04:00,63.1,7.8,17.72,West,270,2.7,2.7,11,0.00,,---,0.00,VWS V14.01,2013-11-02 22:04:00,
2013-11-02 18:09:00,63.0,7.7,17.72,WNW,293,2.7,2.7,11,0.00,,---,0.00,VWS V14.01,2013-11-02 22:09:00,
2013-11-02 18:14:00,62.8,7.5,17.72,West,265,2.2,2.7,11,0.00,,---,0.00,VWS V14.01,2013-11-02 22:14:00,
2013-11-02 18:19:00,62.6,7.4,17.72,NNW,330,3.1,3.6,11,0.00,,---,0.00,VWS V14.01,2013-11-02 22:19:00,
2013-11-02 18:25:00,62.6,7.4,17.72,NW,304,0.0,0.0,11,0.00,,---,0.00,VWS V14.01,2013-11-02 22:25:00,
2013-11-02 18:30:00,62.6,7.4,17.72,NW,323,0.0,0.0,11,0.00,,---,0.00,VWS V14.01,2013-11-02 22:30:00,
2013-11-02 18:35:00,62.2,7.1,17.72,NW,319,2.2,7.6,11,0.00,,---,0.00,VWS V14.01,2013-11-02 22:35:00,
2013-11-02 18:40:00,62.2,7.1,17.72,NW,322,3.1,4.0,11,0.00,,---,0.00,VWS V14.01,2013-11-02 22:40:00,
2013-11-02 18:45:00,62.1,7.0,17.72,NNW,336,0.0,0.0,11,0.00,,---,0.00,VWS V14.01,2013-11-02 22:45:00,
2013-11-02 18:50:00,61.7,6.7,17.72,NNW,336,0.0,0.0,11,0.00,,---,0.00,VWS V14.01,2013-11-02 22:50:00,
2013-11-02 18:55:00,61.5,6.5,17.72,West,265,0.0,2.7,11,0.00,,---,0.00,VWS V14.01,2013-11-02 22:55:00,
2013-11-02 19:00:00,61.2,6.3,17.72,West,276,0.0,0.0,11,0.00,,---,0.00,VWS V14.01,2013-11-02 23:00:00,
2013-11-02 19:05:00,60.8,6.0,17.72,NW,306,0.0,2.2,11,0.00,,---,0.00,VWS V14.01,2013-11-02 23:05:00,
2013-11-02 19:10:00,60.6,7.8,17.72,NW,306,0.0,0.0,12,0.00,,---,0.00,VWS V14.01,2013-11-02 23:10:00,
2013-11-02 19:15:00,60.4,7.6,17.72,West,281,0.0,0.0,12,0.00,,---,0.00,VWS V14.01,2013-11-02 23:15:00,
2013-11-02 19:20:00,60.1,7.3,17.72,NW,308,0.0,0.0,12,0.00,,---,0.00,VWS V14.01,2013-11-02 23:20:00,
2013-11-02 19:25:00,59.7,7.0,17.72,WNW,299,3.6,3.6,12,0.00,,---,0.00,VWS V14.01,2013-11-02 23:25:00,
2013-11-02 19:30:00,59.7,7.0,17.72,WNW,292,3.1,4.0,12,0.00,,---,0.00,VWS V14.01,2013-11-02 23:30:00,
2013-11-02 19:35:00,59.7,7.0,17.72,NW,308,2.2,2.2,12,0.00,,---,0.00,VWS V14.01,2013-11-02 23:35:00,
2013-11-02 19:40:00,59.7,7.0,17.72,NNW,328,0.0,0.0,12,0.00,,---,0.00,VWS V14.01,2013-11-02 23:40:00,
2013-11-02 19:45:00,59.5,6.9,17.72,North,357,2.2,5.4,12,0.00,,---,0.00,VWS V14.01,2013-11-02 23:45:00,
2013-11-02 19:50:00,59.5,6.9,17.72,NNE,32,0.0,0.0,12,0.00,,---,0.00,VWS V14.01,2013-11-02 23:50:00,
2013-11-02 19:55:00,59.2,6.6,17.72,WNW,292,0.0,0.0,12,0.00,,---,0.00,VWS V14.01,2013-11-02 23:55:00,
2013-11-02 20:00:00,59.0,6.5,17.72,WNW,292,0.0,0.0,12,0.00,,---,0.00,VWS V14.01,2013-11-03 00:00:00,
2013-11-02 20:05:00,58.6,6.2,17.72,WNW,292,0.0,0.0,12,0.00,,---,0.00,VWS V14.01,2013-11-03 00:05:00,
2013-11-02 20:10:00,57.9,9.0,17.72,WNW,292,0.0,0.0,14,0.00,,---,0.00,VWS V14.01,2013-11-03 00:10:00,
2013-11-02 20:15:00,57.6,8.7,17.72,WNW,292,0.0,0.0,14,0.00,,---,0.00,VWS V14.01,2013-11-03 00:15:00,
2013-11-02 20:20:00,57.0,16.4,17.72,WNW,292,0.0,0.0,20,0.00,,---,0.00,VWS V14.01,2013-11-03 00:20:00,
2013-11-02 20:25:00,56.8,18.4,17.72,WNW,292,0.0,0.0,22,0.00,,---,0.00,VWS V14.01,2013-11-03 00:25:00,
2013-11-02 20:30:00,56.8,21.4,17.72,WNW,292,0.0,0.0,25,0.00,,---,0.00,VWS V14.01,2013-11-03 00:30:00,
2013-11-02 20:35:00,56.5,22.9,17.72,WNW,292,0.0,0.0,27,0.00,,---,0.00,VWS V14.01,2013-11-03 00:35:00,
2013-11-02 20:40:00,56.1,22.6,17.72,WNW,292,0.0,0.0,27,0.00,,---,0.00,VWS V14.01,2013-11-03 00:40:00,
2013-11-02 20:45:00,55.8,23.2,17.72,WNW,292,0.0,0.0,28,0.04,,---,0.04,VWS V14.01,2013-11-03 00:45:00,
2013-11-02 20:50:00,55.6,23.0,17.72,WNW,292,0.0,0.0,28,0.04,,---,0.04,VWS V14.01,2013-11-03 00:50:00,
2013-11-02 20:55:00,55.4,22.9,17.72,WNW,292,0.0,0.0,28,0.04,,---,0.04,VWS V14.01,2013-11-03 00:55:00,
2013-11-02 21:00:00,55.2,23.5,17.72,WNW,292,0.0,0.0,29,0.04,,---,0.12,VWS V14.01,2013-11-03 01:00:00,
2013-11-02 21:05:00,54.7,23.1,17.72,WNW,292,0.0,0.0,29,0.04,,---,0.04,VWS V14.01,2013-11-03 01:05:00,
2013-11-02 21:10:00,54.7,26.9,17.72,WNW,294,0.0,0.0,34,0.04,,---,0.04,VWS V14.01,2013-11-03 01:10:00,
2013-11-02 21:15:00,54.5,27.4,17.72,WNW,294,0.0,0.0,35,0.04,,---,0.04,VWS V14.01,2013-11-03 01:15:00,
2013-11-02 21:20:00,54.3,28.0,17.72,South,170,0.0,2.7,36,0.04,,---,0.04,VWS V14.01,2013-11-03 01:20:00,
2013-11-02 21:25:00,54.5,26.0,17.72,WNW,294,0.0,0.0,33,0.04,,---,0.04,VWS V14.01,2013-11-03 01:25:00,
2013-11-02 21:30:00,54.5,22.1,17.72,WNW,295,0.0,0.0,28,0.04,,---,0.04,VWS V14.01,2013-11-03 01:30:00,
2013-11-02 21:35:00,54.5,20.3,17.72,WNW,295,0.0,0.0,26,0.04,,---,0.04,VWS V14.01,2013-11-03 01:35:00,
2013-11-02 21:40:00,54.7,20.5,17.72,WNW,295,0.0,0.0,26,0.04,,---,0.04,VWS V14.01,2013-11-03 01:40:00,
2013-11-02 21:45:00,54.7,21.4,17.72,WNW,295,0.0,0.0,27,0.00,,---,0.04,VWS V14.01,2013-11-03 01:45:00,
2013-11-02 21:50:00,54.7,21.4,17.72,WNW,295,0.0,0.0,27,0.00,,---,0.04,VWS V14.01,2013-11-03 01:50:00,
2013-11-02 21:55:00,54.7,22.2,17.72,WNW,295,0.0,0.0,28,0.00,,---,0.04,VWS V14.01,2013-11-03 01:55:00,
2013-11-02 22:00:00,54.5,22.1,17.72,WNW,295,0.0,0.0,28,0.00,,---,0.04,VWS V14.01,2013-11-03 02:00:00,
2013-11-02 22:05:00,54.5,22.1,17.72,WNW,295,0.0,0.0,28,0.00,,---,0.04,VWS V14.01,2013-11-03 02:05:00,
2013-11-02 22:10:00,54.5,21.2,17.72,WNW,295,0.0,0.0,27,0.00,,---,0.04,VWS V14.01,2013-11-03 02:10:00,
2013-11-02 22:15:00,54.5,22.1,17.72,WNW,295,0.0,0.0,28,0.00,,---,0.04,VWS V14.01,2013-11-03 02:15:00,
2013-11-02 22:20:00,54.5,22.9,17.72,West,276,0.0,2.2,29,0.00,,---,0.04,VWS V14.01,2013-11-03 02:20:00,
2013-11-02 22:25:00,54.5,23.7,17.72,West,276,0.0,0.0,30,0.00,,---,0.04,VWS V14.01,2013-11-03 02:25:00,
2013-11-02 22:30:00,54.5,23.7,17.72,West,276,0.0,0.0,30,0.00,,---,0.04,VWS V14.01,2013-11-03 02:30:00,
2013-11-02 22:35:00,54.5,24.5,17.72,WNW,300,0.0,0.0,31,0.00,,---,0.04,VWS V14.01,2013-11-03 02:35:00,
2013-11-02 22:40:00,54.5,26.0,17.72,WNW,300,0.0,0.0,33,0.00,,---,0.04,VWS V14.01,2013-11-03 02:40:00,
2013-11-02 22:45:00,54.3,25.9,17.72,WNW,300,0.0,0.0,33,0.00,,---,0.04,VWS V14.01,2013-11-03 02:45:00,
2013-11-02 22:50:00,54.0,22.5,17.72,WNW,300,0.0,0.0,29,0.00,,---,0.04,VWS V14.01,2013-11-03 02:50:00,
2013-11-02 22:55:00,53.8,19.7,17.72,North,353,0.0,0.0,26,0.00,,---,0.04,VWS V14.01,2013-11-03 02:55:00,
2013-11-02 23:00:00,53.6,19.6,17.72,WSW,237,0.0,0.0,26,0.00,,---,0.12,VWS V14.01,2013-11-03 03:00:00,
2013-11-02 23:05:00,53.8,18.8,17.72,West,277,0.0,0.0,25,0.00,,---,0.04,VWS V14.01,2013-11-03 03:05:00,
2013-11-02 23:10:00,54.0,17.0,17.72,West,277,0.0,0.0,23,0.00,,---,0.04,VWS V14.01,2013-11-03 03:10:00,
2013-11-02 23:15:00,53.6,16.7,17.72,West,277,0.0,0.0,23,0.00,,---,0.04,VWS V14.01,2013-11-03 03:15:00,
2013-11-02 23:20:00,53.4,16.6,17.72,WSW,250,0.0,0.0,23,0.00,,---,0.04,VWS V14.01,2013-11-03 03:20:00,
2013-11-02 23:25:00,53.2,16.4,17.72,WSW,250,0.0,0.0,23,0.00,,---,0.04,VWS V14.01,2013-11-03 03:25:00,
2013-11-02 23:30:00,53.2,16.4,17.72,WSW,250,0.0,0.0,23,0.00,,---,0.04,VWS V14.01,2013-11-03 03:30:00,
2013-11-02 23:35:00,53.1,16.3,17.72,WSW,250,0.0,0.0,23,0.00,,---,0.04,VWS V14.01,2013-11-03 03:35:00,
2013-11-02 23:40:00,53.1,19.1,17.72,WSW,251,0.0,0.0,26,0.00,,---,0.04,VWS V14.01,2013-11-03 03:40:00,
2013-11-02 23:45:00,52.9,19.0,17.72,WSW,250,0.0,0.0,26,0.00,,---,0.04,VWS V14.01,2013-11-03 03:45:00,
2013-11-02 23:50:00,52.7,18.8,17.72,WSW,250,0.0,0.0,26,0.00,,---,0.04,VWS V14.01,2013-11-03 03:50:00,
2013-11-02 23:55:00,52.7,19.7,17.72,WNW,284,0.0,0.0,27,0.00,,---,0.04,VWS V14.01,2013-11-03 03:55:00,